Date String (YYYY-MM-DD hh:mm:ss) UTC,Instrument flags,Ambient pressure (hPa),Sample flow (lpm),Bypass flow (lpm),Sample temperature (°C),Ambient temperature (°C),ASC tube jacket temperature (°C),LED temperature (°C),Box temperature (°C),Sample RH (%),Span deviation,Mass concentration (μg/m³),Mass concentration (μg/m³),Mass concentration (μg/m³)
DateTimeUTC,F1_M11,P_M11,Q1_M11,Q2_M11,T1_M11,T2_M11,T3_M11,T4_M11,T5_M11,U1_M11,ZSPAN_M11,X0_M11,X2_M11,X1_M11
2021-10-08 07:00:00,,0826.7,4.99,0.00,29.9,28.8,00.0,39.0,31.7,13.8,0000.0,0005.11,0002.88,0002.55
2021-10-08 07:01:00,,0826.7,5.00,0.00,29.9,28.8,00.0,39.0,31.7,13.8,0000.0,0005.08,0002.88,0002.55
2021-10-08 07:02:00,,0826.7,5.01,0.00,29.9,28.8,00.0,39.0,31.7,13.8,0000.0,0005.06,0002.87,0002.54
2021-10-08 07:03:00,,0826.7,5.00,0.00,29.9,28.9,00.0,39.0,31.7,13.9,0000.0,0004.16,0002.84,0002.52
2021-10-08 07:04:00,,0826.7,5.01,0.00,29.9,28.9,00.0,39.0,31.7,13.9,0000.0,0003.83,0002.84,0002.53
2021-10-08 07:05:00,,0826.7,5.00,0.00,30.0,28.9,00.0,39.0,31.7,13.8,0000.0,0003.87,0002.84,0002.53
2021-10-08 07:06:00,,0826.7,5.00,0.00,30.0,28.9,00.0,39.0,31.7,13.8,0000.0,0003.68,0002.76,0002.52
2021-10-08 07:07:00,,0826.7,5.00,0.00,30.0,28.9,00.0,39.0,31.7,13.7,0000.0,0003.61,0002.74,0002.51
2021-10-08 07:08:00,,0826.6,4.99,0.00,30.0,29.0,00.0,39.0,31.8,13.9,0000.0,0003.63,0002.75,0002.51
2021-10-08 07:09:00,,0826.7,4.99,0.00,30.0,29.0,00.0,39.1,31.8,13.8,0000.0,0003.68,0002.77,0002.51
2021-10-08 07:10:00,,0826.7,5.00,0.00,30.0,29.0,00.0,39.1,31.8,13.7,0000.0,0003.67,0002.78,0002.50
2021-10-08 07:11:00,,0826.6,5.00,0.00,30.0,29.0,00.0,39.1,31.8,13.7,0000.0,0003.44,0002.78,0002.48
2021-10-08 07:12:00,,0826.7,5.01,0.00,30.1,29.0,00.0,39.1,31.8,13.7,0000.0,0003.39,0002.74,0002.46
2021-10-08 07:13:00,,0826.7,4.99,0.00,30.1,29.0,00.0,39.1,31.8,13.7,0000.0,0003.35,0002.71,0002.44
2021-10-08 07:14:00,,0826.7,5.01,0.00,30.1,29.1,00.0,39.1,31.8,13.7,0000.0,0003.33,0002.71,0002.43
2021-10-08 07:15:00,,0826.7,4.99,0.00,30.1,29.1,00.0,39.1,31.9,13.7,0000.0,0003.33,0002.71,0002.42
2021-10-08 07:16:00,,0826.7,5.01,0.00,30.1,29.1,00.0,39.1,31.9,13.7,0000.0,0003.24,0002.68,0002.40
2021-10-08 07:17:00,,0826.6,5.00,0.00,30.1,29.1,00.0,39.2,31.9,13.7,0000.0,0003.27,0002.66,0002.38
2021-10-08 07:18:00,,0826.7,5.00,0.00,30.1,29.1,00.0,39.2,31.9,13.7,0000.0,0003.41,0002.68,0002.36
2021-10-08 07:19:00,,0826.6,4.99,0.00,30.1,29.2,00.0,39.2,31.9,13.7,0000.0,0003.30,0002.62,0002.35
2021-10-08 07:20:00,,0826.6,5.01,0.00,30.1,29.2,00.0,39.2,31.9,13.7,0000.0,0003.19,0002.56,0002.32
2021-10-08 07:21:00,,0826.5,5.00,0.00,30.1,29.2,00.0,39.2,31.9,13.7,0000.0,0003.11,0002.53,0002.32
2021-10-08 07:22:00,,0826.6,5.00,0.00,30.2,29.2,00.0,39.2,32.0,13.8,0000.0,0002.99,0002.50,0002.32
2021-10-08 07:23:00,,0826.5,5.00,0.00,30.2,29.2,00.0,39.2,32.0,13.7,0000.0,0003.10,0002.54,0002.33
2021-10-08 07:24:00,,0826.5,5.02,0.00,30.2,29.3,00.0,39.3,32.0,13.6,0000.0,0003.15,0002.55,0002.32
2021-10-08 07:25:00,,0826.5,5.00,0.00,30.2,29.3,00.0,39.3,32.0,13.7,0000.0,0003.20,0002.57,0002.32
2021-10-08 07:26:00,,0826.5,5.00,0.00,30.2,29.3,00.0,39.3,32.0,13.7,0000.0,0003.18,0002.55,0002.31
2021-10-08 07:27:00,,0826.5,5.00,0.00,30.2,29.3,00.0,39.3,32.0,13.7,0000.0,0003.24,0002.53,0002.30
2021-10-08 07:28:00,,0826.5,5.02,0.00,30.2,29.3,00.0,39.3,32.0,13.6,0000.0,0003.71,0002.53,0002.30
2021-10-08 07:29:00,,0826.5,5.00,0.00,30.3,29.4,00.0,39.3,32.0,13.6,0000.0,0003.54,0002.49,0002.28
2021-10-08 07:30:00,,0826.5,4.99,0.00,30.3,29.4,00.0,39.3,32.0,13.5,0000.0,0003.48,0002.47,0002.26
2021-10-08 07:31:00,,0826.6,4.99,0.00,30.3,29.4,00.0,39.3,32.1,13.5,0000.0,0003.49,0002.47,0002.25
2021-10-08 07:32:00,,0826.5,5.00,0.00,30.3,29.5,00.0,39.4,32.1,13.4,0000.0,0003.58,0002.48,0002.23
2021-10-08 07:33:00,,0826.5,5.02,0.00,30.3,29.5,00.0,39.4,32.1,13.4,0000.0,0003.61,0002.47,0002.22
2021-10-08 07:34:00,,0826.5,5.00,0.00,30.3,29.5,00.0,39.4,32.1,13.5,0000.0,0003.56,0002.46,0002.21
2021-10-08 07:35:00,,0826.6,4.99,0.00,30.3,29.5,00.0,39.4,32.1,13.5,0000.0,0003.58,0002.47,0002.21
2021-10-08 07:36:00,,0826.6,5.01,0.00,30.4,29.5,00.0,39.4,32.1,13.4,0000.0,0003.54,0002.46,0002.21
2021-10-08 07:37:00,,0826.6,4.99,0.00,30.4,29.5,00.0,39.4,32.1,13.4,0000.0,0003.63,0002.47,0002.21
2021-10-08 07:38:00,,0826.6,5.01,0.00,30.4,29.5,00.0,39.4,32.1,13.4,0000.0,0003.80,0002.52,0002.21
2021-10-08 07:39:00,,0826.5,5.01,0.00,30.4,29.5,00.0,39.4,32.1,13.4,0000.0,0004.17,0002.55,0002.22
2021-10-08 07:40:00,,0826.5,4.98,0.00,30.4,29.5,00.0,39.5,32.1,13.4,0000.0,0005.24,0002.59,0002.23
2021-10-08 07:41:00,,0826.5,5.00,0.00,30.4,29.5,00.0,39.5,32.2,13.4,0000.0,0005.33,0002.62,0002.23
2021-10-08 07:42:00,,0826.6,5.00,0.00,30.4,29.3,00.0,39.5,32.1,13.4,0000.0,0005.40,0002.63,0002.24
2021-10-08 07:43:00,,0826.5,4.99,0.00,30.3,27.3,00.0,39.4,31.6,13.5,0000.0,0005.39,0002.64,0002.24
2021-10-08 07:44:00,,0826.5,5.00,0.00,30.1,26.4,00.0,39.4,31.3,13.6,0000.0,0005.41,0002.66,0002.26
2021-10-08 07:45:00,,0826.6,5.00,0.00,30.0,26.6,00.0,39.4,31.4,13.7,0000.0,0005.45,0002.69,0002.25
2021-10-08 07:46:00,,0826.5,5.00,0.00,29.9,27.0,00.0,39.3,31.4,13.7,0000.0,0005.44,0002.68,0002.25
2021-10-08 07:47:00,,0826.5,5.00,0.00,29.9,27.4,00.0,39.3,31.4,13.8,0000.0,0005.52,0002.72,0002.26
2021-10-08 07:48:00,,0826.5,5.00,0.00,29.9,27.7,00.0,39.2,31.5,13.8,0000.0,0005.54,0002.70,0002.26
2021-10-08 07:49:00,,0826.5,5.00,0.00,29.9,28.0,00.0,39.2,31.5,13.9,0000.0,0005.29,0002.65,0002.25
2021-10-08 07:50:00,,0826.5,5.00,0.00,29.9,28.2,00.0,39.2,31.6,13.9,0000.0,0004.95,0002.63,0002.24
2021-10-08 07:51:00,,0826.6,4.99,0.00,29.9,28.4,00.0,39.1,31.6,13.9,0000.0,0003.44,0002.60,0002.24
2021-10-08 07:52:00,,0826.5,5.01,0.00,29.9,28.5,00.0,39.1,31.6,13.9,0000.0,0003.43,0002.59,0002.25
2021-10-08 07:53:00,,0826.5,4.99,0.00,29.9,28.6,00.0,39.1,31.6,13.9,0000.0,0003.40,0002.59,0002.25
2021-10-08 07:54:00,,0826.6,5.01,0.00,29.9,28.7,00.0,39.1,31.7,13.9,0000.0,0003.39,0002.59,0002.25
2021-10-08 07:55:00,,0826.6,4.99,0.00,29.9,28.8,00.0,39.1,31.7,13.9,0000.0,0003.40,0002.56,0002.22
2021-10-08 07:56:00,,0826.6,5.00,0.00,30.0,28.8,00.0,39.1,31.7,13.9,0000.0,0003.48,0002.54,0002.20
2021-10-08 07:57:00,,0826.6,5.01,0.00,30.0,28.9,00.0,39.1,31.7,13.9,0000.0,0003.46,0002.51,0002.19
2021-10-08 07:58:00,,0826.6,5.01,0.00,30.0,28.9,00.0,39.1,31.7,13.9,0000.0,0003.38,0002.46,0002.18
2021-10-08 07:59:00,,0826.6,4.99,0.00,30.0,29.0,00.0,39.1,31.8,13.8,0000.0,0003.31,0002.44,0002.17
